TimeHST,TemperatureF,Dew PointF,Humidity,Sea Level PressureIn,VisibilityMPH,Wind Direction,Wind SpeedMPH,Gust SpeedMPH,PrecipitationIn,Events,Conditions,WindDirDegrees,DateUTC
12:55 AM,62.1,58.3,87,29.97,10.0,Calm,Calm,-,N/A,,Partly Cloudy,0,2012-12-24 10:55:00
1:55 AM,63.1,59.5,88,29.96,10.0,NNW,3.5,-,N/A,,Clear,330,2012-12-24 11:55:00
2:55 AM,62.8,59.0,87,29.94,10.0,North,3.5,-,N/A,,Clear,350,2012-12-24 12:55:00
3:55 AM,63.1,58.6,85,29.93,10.0,North,6.9,-,N/A,,Scattered Clouds,350,2012-12-24 13:55:00
4:55 AM,62.8,55.9,78,29.92,10.0,NW,5.8,-,N/A,,Mostly Cloudy,310,2012-12-24 14:55:00
5:55 AM,63.3,55.2,75,29.94,10.0,NNW,3.5,-,N/A,,Mostly Cloudy,330,2012-12-24 15:55:00
6:55 AM,62.6,55.8,78,29.96,10.0,ENE,4.6,-,N/A,,Mostly Cloudy,60,2012-12-24 16:55:00
7:55 AM,63.7,55.8,75,29.99,10.0,Calm,Calm,-,N/A,,Clear,0,2012-12-24 17:55:00
8:55 AM,65.1,56.8,75,30.00,10.0,West,3.5,-,N/A,,Clear,280,2012-12-24 18:55:00
9:55 AM,69.1,60.8,75,30.00,10.0,Calm,Calm,-,N/A,,Clear,0,2012-12-24 19:55:00
10:55 AM,72.3,62.6,71,29.99,10.0,Calm,Calm,-,N/A,,Clear,0,2012-12-24 20:55:00
11:55 AM,74.3,61.0,63,29.96,10.0,Variable,5.8,-,N/A,,Clear,0,2012-12-24 21:55:00
12:55 PM,76.6,61.3,59,29.93,10.0,ESE,3.5,-,N/A,,Partly Cloudy,120,2012-12-24 22:55:00
1:55 PM,75.6,62.2,63,29.91,10.0,ENE,6.9,-,N/A,,Clear,70,2012-12-24 23:55:00
2:55 PM,74.5,63.9,69,29.92,10.0,NE,5.8,-,N/A,,Clear,50,2012-12-25 00:55:00
3:55 PM,74.3,63.9,70,29.94,10.0,North,4.6,-,N/A,,Clear,360,2012-12-25 01:55:00
4:55 PM,74.1,58.8,59,29.95,10.0,Calm,Calm,-,N/A,,Clear,0,2012-12-25 02:55:00
5:55 PM,72.9,63.7,73,29.96,10.0,Calm,Calm,-,N/A,,Clear,0,2012-12-25 03:55:00
6:55 PM,70.9,64.4,80,29.99,10.0,Calm,Calm,-,N/A,,Clear,0,2012-12-25 04:55:00
7:55 PM,71.1,64.8,80,30.00,10.0,NE,4.6,-,N/A,,Mostly Cloudy,50,2012-12-25 05:55:00
9:55 PM,68.9,64.2,85,30.02,10.0,ENE,3.5,-,N/A,,Partly Cloudy,70,2012-12-25 07:55:00
10:55 PM,68.4,64.4,87,30.01,10.0,Calm,Calm,-,N/A,,Scattered Clouds,0,2012-12-25 08:55:00
11:55 PM,67.3,64.0,89,30.01,10.0,Calm,Calm,-,N/A,,Overcast,0,2012-12-25 09:55:00